Home > Weather > Nashville > Past weeks

Flag for USA Past Weather in Nashville, Tennessee, USA — Yesterday and Last 2 Weeks

Now
80 °F

Passing clouds.


Feels Like: 82 °F
Forecast: 68 / 88 °F
Wind: 6 mph from North

Location: Nashville International Airport

Current Time: Jul 1, 2016 at 10:50:56 PM

Latest Report: Jul 1, 2016 at 9:53 PM


Visibility: 10 mi

Pressure: 30.01 "Hg

Humidity: 64%

Dew Point: 67 °F

Location of NashvilleLocation

Past Weather in Nashville — Graph

°F

Nashville Temperature Yesterday

Maximum temperature yesterday: 87 °F (at 2:53 PM)
Minimum temperature yesterday: 59 °F (at 5:53 AM)
Average temperature yesterday: 75 °F

High & Low Weather Summary for the Past Weeks

 TemperatureHumidityPressure
High96 °F (Jun 22, 2:53 PM)94% (Jun 27, 11:04 PM)30.31 "Hg (Jun 27, 11:04 PM)
Low59 °F (Jun 30, 5:53 AM)31% (Jun 30, 4:53 PM)29.80 "Hg (Jun 16, 10:53 PM)
Average81 °F63%30.04 "Hg
* Reported Jun 16 9:53 PM — Jul 1 9:53 PM, Nashville, Weather by CustomWeather, © 2016

Note: Actual official high and low records may vary slightly from our data, if they occured in-between our weather recording intervals... More about our weather records

Advertising

Nashville Weather History for the Previous 24 Hours

Scroll right to see more
 ConditionsComfort  
Time TempWeatherWind HumidityBarometerVisibility
9:53 PM
Fri, Jul 1
80 °FPassing clouds.6 mph64%30.01 "Hg10 mi
8:53 PM81 °FPassing clouds.5 mph62%29.99 "Hg10 mi
7:53 PM84 °FScattered clouds.8 mph55%29.98 "Hg10 mi
6:53 PM85 °FScattered clouds.9 mph51%29.98 "Hg10 mi
5:53 PM88 °FScattered clouds.8 mph52%29.96 "Hg10 mi
4:53 PM89 °FPartly sunny.13 mph50%29.97 "Hg10 mi
3:53 PM90 °FBroken clouds.7 mph48%29.96 "Hg10 mi
2:53 PM89 °FBroken clouds.9 mph50%29.97 "Hg10 mi
1:53 PM88 °FBroken clouds.9 mph52%29.98 "Hg10 mi
12:53 PM88 °FPartly sunny.6 mph48%29.98 "Hg10 mi
11:53 AM86 °FScattered clouds.6 mph51%29.98 "Hg10 mi
10:53 AM83 °FSunny.5 mph61%29.99 "Hg10 mi
9:53 AM74 °FPassing clouds.6 mph76%30.00 "Hg10 mi
8:53 AM71 °FLight rain. Partly sunny.3 mph81%30.01 "Hg10 mi
8:26 AM71 °FLight rain. More clouds than sun.6 mph73%30.03 "Hg10 mi
7:53 AM71 °FLight rain. Overcast.6 mph73%30.03 "Hg10 mi
6:53 AM68 °FScattered clouds.No wind82%30.00 "Hg10 mi
5:53 AM65 °FSunny.6 mph91%29.97 "Hg10 mi
4:53 AM65 °FClear.6 mph91%29.96 "Hg10 mi
3:53 AM68 °FClear.No wind82%29.96 "Hg10 mi
2:53 AM66 °FClear.No wind87%29.96 "Hg10 mi
1:53 AM69 °FClear.No wind79%29.95 "Hg10 mi
12:53 AM68 °FClear.5 mph82%29.95 "Hg10 mi
11:53 PM
Thu, Jun 30
70 °FClear.No wind73%29.98 "Hg10 mi
10:53 PM72 °FClear.No wind64%29.99 "Hg10 mi
Weather by CustomWeather, © 2016

See weather overviewHow to use our weather pages